Location: Newark
(46.3833°N, 6.2000°E)
Time: 13:48:02
(UTC+00:00)

N. Korean satellite - Pass Details

Date: 27 February 2020
Orbit: 454 x 507 km, 97.2° (Epoch: 06 April)

Event Time Altitude Azimuth Distance (km) Brightness Sun altitude
Rises 05:40:03 0° 9° (N) 2,624 10.3 -7.5°
Reaches altitude 10° 05:42:10 10° 6° (N) 1,730 9.4 -7.2°
Maximum altitude 05:45:51 62° 286° (WNW) 570 6.6 -6.5°
Drops below altitude 10° 05:49:29 10° 205° (SSW) 1,698 9.1 -5.9°
Sets 05:51:32 0° 202° (SSW) 2,568 10.1 -5.6°
